QPF
0.07 0.08 0.10 0.12 0.09 0.08 0.08 0.07 0.07 0.06 0.06 0.09 0.10 0.08 0.07 0.07 0.07 0.09 0.08 0.06 0.05 0.05 0.05 0.06 0.08 0.08 0.09 0.10 0.11 0.09 0.08 0.09 0.10 0.13 0.07 0.05 0.05 0.05 0.05 0.06 0.05 0.04 0.02
0.05 0.07 0.07 0.09 0.08 0.09 0.07 0.09 0.09 0.07 0.07 0.08 0.08 0.07 0.06 0.06 0.08 0.11 0.10 0.09 0.08 0.07 0.06 0.08 0.11 0.11 0.09 0.08 0.08 0.10 0.10 0.09 0.13 0.14 0.12 0.10 0.08 0.06 0.06 0.08 0.06 0.03 0.03
0.03 0.05 0.05 0.07 0.07 0.07 0.07 0.10 0.10 0.08 0.07 0.07 0.07 0.06 0.05 0.05 0.06 0.10 0.11 0.12 0.11 0.11 0.10 0.10 0.13 0.09 0.07 0.08 0.08 0.11 0.11 0.12 0.13 0.12 0.11 0.09 0.08 0.06 0.08 0.09 0.07 0.05 0.05
0.03 0.04 0.04 0.06 0.07 0.07 0.07 0.09 0.12 0.09 0.08 0.08 0.07 0.07 0.05 0.05 0.06 0.08 0.11 0.13 0.18 0.15 0.12 0.14 0.14 0.08 0.07 0.09 0.09 0.13 0.15 0.17 0.14 0.10 0.07 0.05 0.05 0.05 0.07 0.07 0.07 0.07 0.07
0.01 0.02 0.04 0.07 0.07 0.08 0.10 0.08 0.11 0.13 0.08 0.08 0.08 0.08 0.07 0.08 0.08 0.09 0.12 0.19 0.18 0.12 0.10 0.11 0.11 0.10 0.09 0.11 0.12 0.14 0.14 0.14 0.11 0.07 0.05 0.06 0.08 0.07 0.06 0.06 0.07 0.08 0.08
0.01 0.02 0.04 0.06 0.07 0.09 0.11 0.10 0.09 0.13 0.10 0.08 0.09 0.09 0.08 0.09 0.10 0.12 0.14 0.13 0.09 0.08 0.09 0.10 0.10 0.10 0.10 0.10 0.11 0.14 0.13 0.10 0.07 0.04 0.05 0.08 0.07 0.06 0.06 0.07 0.08 0.09 0.07
0.01 0.01 0.03 0.04 0.05 0.05 0.08 0.12 0.09 0.08 0.10 0.12 0.12 0.10 0.08 0.07 0.06 0.07 0.06 0.07 0.08 0.08 0.09 0.09 0.08 0.08 0.08 0.09 0.09 0.10 0.11 0.08 0.05 0.04 0.06 0.09 0.07 0.04 0.05 0.05 0.04 0.05 0.06
0.02 0.02 0.02 0.04 0.07 0.06 0.05 0.08 0.08 0.08 0.11 0.16 0.17 0.15 0.11 0.07 0.07 0.09 0.09 0.08 0.09 0.09 0.10 0.10 0.09 0.08 0.07 0.06 0.11 0.11 0.09 0.07 0.05 0.04 0.06 0.07 0.06 0.05 0.05 0.05 0.04 0.03 0.05
0.03 0.03 0.02 0.04 0.05 0.06 0.06 0.07 0.10 0.12 0.12 0.15 0.18 0.17 0.14 0.11 0.08 0.09 0.10 0.11 0.11 0.10 0.09 0.09 0.10 0.09 0.08 0.07 0.13 0.12 0.08 0.08 0.07 0.07 0.06 0.06 0.05 0.06 0.05 0.06 0.06 0.05 0.06
0.04 0.04 0.04 0.03 0.04 0.06 0.11 0.18 0.16 0.14 0.15 0.15 0.16 0.14 0.13 0.11 0.09 0.08 0.08 0.09 0.10 0.09 0.09 0.09 0.11 0.12 0.10 0.12 0.16 0.11 0.09 0.09 0.08 0.08 0.07 0.05 0.05 0.07 0.06 0.06 0.07 0.06 0.07
0.02 0.03 0.02 0.02 0.02 0.03 0.04 0.10 0.16 0.16 0.15 0.14 0.15 0.13 0.10 0.10 0.10 0.10 0.09 0.09 0.08 0.08 0.09 0.10 0.13 0.19 0.16 0.13 0.16 0.13 0.09 0.08 0.08 0.08 0.06 0.05 0.06 0.07 0.10 0.11 0.13 0.10 0.08
0.03 0.02 0.02 0.02 0.02 0.02 0.02 0.03 0.07 0.12 0.15 0.14 0.15 0.15 0.13 0.11 0.10 0.08 0.08 0.09 0.07 0.06 0.09 0.12 0.17 0.25 0.20 0.11 0.10 0.09 0.07 0.05 0.05 0.05 0.04 0.03 0.04 0.05 0.07 0.12 0.18 0.15 0.14
0.02 0.02 0.01 0.01 0.01 0.01 0.03 0.04 0.07 0.10 0.13 0.13 0.13 0.14 0.13 0.10 0.10 0.09 0.11 0.11 0.11 0.10 0.11 0.15 0.20 0.24 0.19 0.11 0.09 0.10 0.06 0.04 0.04 0.03 0.04 0.02 0.03 0.04 0.06 0.07 0.10 0.09 0.11
0.01 0.01 0.01 0.01 0.01 0.02 0.03 0.04 0.06 0.09 0.10 0.12 0.11 0.09 0.09 0.10 0.11 0.10 0.10 0.10 0.11 0.12 0.15 0.17 0.19 0.19 0.16 0.11 0.08 0.07 0.05 0.05 0.04 0.05 0.04 0.02 0.02 0.04 0.06 0.07 0.09 0.09 0.08
0.03 0.02 0.01 0.01 0.01 0.02 0.04 0.04 0.06 0.10 0.11 0.12 0.09 0.07 0.08 0.09 0.10 0.10 0.11 0.13 0.12 0.11 0.14 0.17 0.14 0.12 0.11 0.08 0.06 0.05 0.05 0.06 0.05 0.05 0.04 0.03 0.02 0.03 0.06 0.08 0.09 0.10 0.10
0.02 0.02 0.02 0.02 0.03 0.03 0.05 0.07 0.09 0.11 0.11 0.07 0.06 0.05 0.05 0.07 0.08 0.09 0.10 0.11 0.10 0.10 0.12 0.13 0.09 0.08 0.07 0.08 0.09 0.08 0.05 0.05 0.04 0.03 0.03 0.04 0.03 0.03 0.05 0.07 0.08 0.09 0.08
0.02 0.01 0.01 0.01 0.02 0.03 0.03 0.04 0.05 0.06 0.06 0.04 0.05 0.03 0.02 0.05 0.07 0.07 0.08 0.07 0.06 0.07 0.10 0.11 0.08 0.08 0.07 0.07 0.08 0.10 0.11 0.08 0.05 0.03 0.03 0.03 0.04 0.05 0.07 0.06 0.06 0.07 0.08
0.02 0.01 0.00 0.00 0.01 0.01 0.01 0.01 0.01 0.02 0.02 0.03 0.04 0.03 0.03 0.04 0.05 0.05 0.05 0.07 0.08 0.08 0.10 0.10 0.09 0.09 0.09 0.08 0.08 0.08 0.09 0.08 0.04 0.04 0.03 0.03 0.05 0.09 0.07 0.06 0.06 0.07 0.10
0.02 0.01 0.01 0.01 0.01 0.01 0.01 0.01 0.01 0.02 0.03 0.03 0.04 0.04 0.04 0.04 0.04 0.04 0.05 0.07 0.08 0.08 0.08 0.08 0.11 0.10 0.08 0.07 0.06 0.06 0.06 0.06 0.04 0.03 0.03 0.03 0.07 0.09 0.07 0.09 0.06 0.08 0.11
0.02 0.01 0.01 0.01 0.01 0.01 0.01 0.02 0.02 0.02 0.03 0.03 0.04 0.04 0.04 0.04 0.03 0.05 0.05 0.05 0.05 0.06 0.05 0.08 0.10 0.10 0.09 0.07 0.05 0.05 0.04 0.04 0.03 0.03 0.03 0.04 0.04 0.04 0.06 0.09 0.08 0.07 0.09
0.01 0.00 0.00 0.00 0.00 0.01 0.01 0.01 0.02 0.03 0.03 0.03 0.04 0.04 0.04 0.04 0.03 0.04 0.04 0.04 0.04 0.04 0.04 0.04 0.05 0.08 0.10 0.08 0.06 0.06 0.05 0.05 0.03 0.02 0.03 0.03 0.03 0.03 0.05 0.07 0.08 0.07 0.06
0.00 0.00 0.00 0.00 0.00 0.00 0.01 0.01 0.02 0.02 0.02 0.03 0.03 0.04 0.04 0.02 0.02 0.02 0.04 0.04 0.04 0.05 0.04 0.03 0.04 0.07 0.12 0.11 0.08 0.08 0.09 0.09 0.05 0.04 0.03 0.03 0.02 0.02 0.03 0.05 0.05 0.06 0.07
0.00 0.00 0.00 0.00 0.00 0.01 0.01 0.01 0.01 0.02 0.03 0.02 0.02 0.02 0.02 0.01 0.01 0.01 0.02 0.03 0.04 0.04 0.07 0.04 0.04 0.05 0.10 0.14 0.13 0.13 0.13 0.10 0.07 0.06 0.05 0.03 0.03 0.03 0.03 0.04 0.03 0.04 0.05
0.00 0.00 0.00 0.00 0.01 0.01 0.01 0.01 0.02 0.03 0.03 0.03 0.03 0.03 0.04 0.02 0.01 0.02 0.02 0.02 0.04 0.04 0.07 0.04 0.03 0.04 0.06 0.09 0.10 0.11 0.11 0.08 0.07 0.05 0.05 0.04 0.03 0.03 0.02 0.02 0.02 0.03 0.03
0.00 0.00 0.00 0.00 0.01 0.01 0.01 0.01 0.01 0.01 0.03 0.02 0.02 0.04 0.04 0.03 0.02 0.01 0.02 0.02 0.03 0.04 0.07 0.06 0.05 0.05 0.05 0.07 0.08 0.07 0.06 0.06 0.06 0.06 0.04 0.02 0.02 0.02 0.02 0.01 0.02 0.03 0.04
0.00 0.00 0.00 0.00 0.00 0.00 0.00 0.01 0.01 0.02 0.02 0.02 0.01 0.02 0.02 0.01 0.02 0.02 0.01 0.02 0.03 0.04 0.06 0.06 0.05 0.05 0.07 0.08 0.11 0.06 0.05 0.06 0.06 0.06 0.04 0.03 0.02 0.01 0.02 0.02 0.02 0.03 0.04
MSLP
1010.47 1010.37 1010.37 1010.48 1010.70 1010.98 1011.26 1011.51 1011.70 1011.81 1011.88 1011.94 1012.02 1012.15 1012.33 1012.56 1012.80 1013.02 1013.20 1013.31 1013.37 1013.40 1013.41 1013.45 1013.51 1013.61 1013.74 1013.88 1014.01 1014.12 1014.20 1014.27 1014.34 1014.42 1014.52 1014.65 1014.79 1014.94 1015.07 1015.18 1015.27 1015.34 1015.41
1010.73 1010.71 1010.79 1010.97 1011.24 1011.55 1011.83 1012.06 1012.22 1012.29 1012.32 1012.35 1012.41 1012.52 1012.70 1012.91 1013.14 1013.34 1013.48 1013.56 1013.59 1013.58 1013.58 1013.61 1013.68 1013.79 1013.93 1014.08 1014.21 1014.31 1014.38 1014.42 1014.47 1014.54 1014.63 1014.76 1014.90 1015.05 1015.19 1015.31 1015.41 1015.49 1015.57
1010.96 1011.02 1011.17 1011.42 1011.73 1012.05 1012.35 1012.56 1012.69 1012.73 1012.74 1012.74 1012.78 1012.88 1013.04 1013.24 1013.43 1013.59 1013.69 1013.73 1013.73 1013.71 1013.70 1013.73 1013.82 1013.95 1014.11 1014.26 1014.38 1014.46 1014.50 1014.52 1014.53 1014.57 1014.65 1014.77 1014.92 1015.09 1015.25 1015.39 1015.50 1015.61 1015.71
1011.16 1011.28 1011.49 1011.79 1012.14 1012.49 1012.78 1012.99 1013.11 1013.14 1013.13 1013.13 1013.16 1013.25 1013.40 1013.56 1013.72 1013.84 1013.90 1013.90 1013.87 1013.84 1013.83 1013.88 1013.98 1014.13 1014.29 1014.43 1014.52 1014.56 1014.56 1014.53 1014.50 1014.52 1014.58 1014.70 1014.86 1015.05 1015.24 1015.41 1015.56 1015.70 1015.83
1011.35 1011.51 1011.77 1012.10 1012.48 1012.84 1013.15 1013.36 1013.48 1013.52 1013.51 1013.51 1013.55 1013.64 1013.78 1013.92 1014.05 1014.13 1014.15 1014.12 1014.06 1014.02 1014.02 1014.08 1014.19 1014.34 1014.49 1014.59 1014.64 1014.62 1014.55 1014.46 1014.39 1014.38 1014.43 1014.56 1014.74 1014.96 1015.19 1015.40 1015.60 1015.77 1015.94
1011.54 1011.73 1012.00 1012.36 1012.76 1013.14 1013.46 1013.68 1013.81 1013.86 1013.87 1013.89 1013.95 1014.05 1014.18 1014.31 1014.41 1014.46 1014.45 1014.39 1014.32 1014.27 1014.27 1014.33 1014.44 1014.57 1014.68 1014.74 1014.72 1014.63 1014.49 1014.34 1014.22 1014.19 1014.24 1014.39 1014.60 1014.86 1015.13 1015.39 1015.62 1015.83 1016.02
1011.74 1011.95 1012.24 1012.61 1013.02 1013.40 1013.72 1013.95 1014.09 1014.16 1014.20 1014.24 1014.32 1014.44 1014.57 1014.69 1014.78 1014.80 1014.77 1014.69 1014.60 1014.54 1014.54 1014.59 1014.68 1014.78 1014.84 1014.83 1014.73 1014.57 1014.36 1014.16 1014.02 1013.97 1014.05 1014.23 1014.49 1014.79 1015.10 1015.39 1015.64 1015.86 1016.06
1011.99 1012.20 1012.50 1012.87 1013.28 1013.66 1013.97 1014.20 1014.34 1014.42 1014.47 1014.54 1014.64 1014.76 1014.90 1015.03 1015.10 1015.10 1015.05 1014.95 1014.85 1014.77 1014.75 1014.78 1014.84 1014.89 1014.89 1014.81 1014.65 1014.42 1014.16 1013.93 1013.78 1013.76 1013.87 1014.10 1014.41 1014.77 1015.11 1015.41 1015.66 1015.87 1016.05
1012.27 1012.49 1012.79 1013.17 1013.56 1013.92 1014.21 1014.42 1014.54 1014.62 1014.68 1014.75 1014.86 1015.00 1015.14 1015.25 1015.31 1015.30 1015.22 1015.10 1014.98 1014.88 1014.83 1014.82 1014.84 1014.84 1014.79 1014.65 1014.43 1014.16 1013.88 1013.64 1013.52 1013.54 1013.71 1014.00 1014.37 1014.77 1015.13 1015.44 1015.67 1015.83 1015.97
1012.59 1012.82 1013.13 1013.49 1013.86 1014.19 1014.44 1014.61 1014.71 1014.76 1014.81 1014.88 1014.99 1015.12 1015.26 1015.36 1015.40 1015.36 1015.26 1015.11 1014.95 1014.82 1014.73 1014.69 1014.66 1014.61 1014.51 1014.33 1014.08 1013.79 1013.51 1013.31 1013.23 1013.31 1013.54 1013.90 1014.33 1014.77 1015.15 1015.44 1015.63 1015.75 1015.82
1012.90 1013.16 1013.48 1013.83 1014.17 1014.46 1014.66 1014.78 1014.83 1014.85 1014.87 1014.93 1015.02 1015.15 1015.27 1015.36 1015.37 1015.31 1015.17 1014.98 1014.78 1014.61 1014.48 1014.39 1014.32 1014.23 1014.10 1013.89 1013.63 1013.35 1013.09 1012.93 1012.90 1013.05 1013.35 1013.77 1014.25 1014.72 1015.11 1015.39 1015.54 1015.60 1015.60
1013.20 1013.48 1013.81 1014.15 1014.46 1014.70 1014.85 1014.92 1014.92 1014.90 1014.89 1014.93 1015.01 1015.12 1015.22 1015.29 1015.28 1015.18 1015.00 1014.77 1014.53 1014.31 1014.13 1014.00 1013.89 1013.77 1013.62 1013.40 1013.15 1012.89 1012.67 1012.54 1012.57 1012.76 1013.12 1013.58 1014.10 1014.59 1014.98 1015.25 1015.38 1015.39 1015.34
1013.43 1013.74 1014.08 1014.41 1014.69 1014.89 1015.00 1015.02 1014.98 1014.93 1014.89 1014.91 1014.98 1015.08 1015.17 1015.21 1015.18 1015.05 1014.84 1014.57 1014.28 1014.02 1013.80 1013.62 1013.48 1013.34 1013.17 1012.97 1012.73 1012.49 1012.30 1012.20 1012.26 1012.48 1012.85 1013.34 1013.86 1014.35 1014.75 1015.02 1015.13 1015.13 1015.05
1013.59 1013.92 1014.26 1014.58 1014.84 1015.01 1015.08 1015.07 1015.01 1014.94 1014.90 1014.91 1014.97 1015.07 1015.15 1015.19 1015.14 1014.99 1014.75 1014.45 1014.13 1013.83 1013.57 1013.36 1013.19 1013.04 1012.87 1012.68 1012.46 1012.24 1012.06 1011.98 1012.03 1012.24 1012.60 1013.06 1013.56 1014.04 1014.43 1014.69 1014.81 1014.81 1014.74
1013.66 1014.00 1014.34 1014.65 1014.89 1015.05 1015.11 1015.09 1015.03 1014.96 1014.92 1014.94 1015.01 1015.11 1015.20 1015.24 1015.19 1015.03 1014.78 1014.46 1014.12 1013.79 1013.51 1013.28 1013.10 1012.95 1012.79 1012.61 1012.40 1012.19 1012.02 1011.92 1011.93 1012.09 1012.39 1012.79 1013.23 1013.67 1014.04 1014.31 1014.44 1014.47 1014.42
1013.64 1013.98 1014.31 1014.62 1014.86 1015.02 1015.09 1015.08 1015.04 1014.99 1014.97 1015.01 1015.09 1015.21 1015.30 1015.35 1015.31 1015.16 1014.92 1014.60 1014.26 1013.93 1013.64 1013.41 1013.23 1013.09 1012.94 1012.78 1012.59 1012.39 1012.20 1012.06 1012.02 1012.09 1012.29 1012.59 1012.94 1013.31 1013.65 1013.90 1014.06 1014.13 1014.12
1013.56 1013.88 1014.22 1014.53 1014.78 1014.96 1015.05 1015.08 1015.06 1015.04 1015.05 1015.10 1015.20 1015.31 1015.42 1015.47 1015.45 1015.32 1015.10 1014.81 1014.49 1014.18 1013.91 1013.69 1013.53 1013.41 1013.29 1013.15 1012.98 1012.78 1012.58 1012.40 1012.28 1012.26 1012.33 1012.51 1012.75 1013.03 1013.30 1013.53 1013.70 1013.80 1013.84
1013.41 1013.74 1014.08 1014.41 1014.68 1014.90 1015.03 1015.10 1015.12 1015.13 1015.15 1015.21 1015.30 1015.40 1015.50 1015.56 1015.55 1015.45 1015.26 1015.01 1014.73 1014.46 1014.22 1014.04 1013.91 1013.82 1013.73 1013.63 1013.49 1013.31 1013.10 1012.88 1012.70 1012.58 1012.53 1012.57 1012.69 1012.86 1013.06 1013.25 1013.41 1013.52 1013.59
1013.23 1013.57 1013.93 1014.29 1014.60 1014.86 1015.05 1015.16 1015.22 1015.25 1015.27 1015.31 1015.37 1015.45 1015.53 1015.58 1015.57 1015.50 1015.35 1015.15 1014.92 1014.70 1014.51 1014.37 1014.28 1014.23 1014.18 1014.12 1014.02 1013.87 1013.67 1013.44 1013.21 1013.01 1012.86 1012.79 1012.78 1012.84 1012.95 1013.08 1013.21 1013.33 1013.41
1013.00 1013.37 1013.77 1014.17 1014.54 1014.86 1015.10 1015.26 1015.35 1015.39 1015.40 1015.41 1015.43 1015.46 1015.50 1015.52 1015.51 1015.45 1015.35 1015.20 1015.03 1014.87 1014.73 1014.63 1014.58 1014.56 1014.56 1014.54 1014.49 1014.38 1014.22 1014.00 1013.76 1013.52 1013.30 1013.13 1013.02 1012.98 1012.99 1013.06 1013.14 1013.23 1013.30
1012.70 1013.13 1013.58 1014.04 1014.47 1014.85 1015.16 1015.37 1015.49 1015.54 1015.54 1015.51 1015.47 1015.44 1015.43 1015.42 1015.39 1015.35 1015.28 1015.18 1015.07 1014.95 1014.86 1014.80 1014.78 1014.79 1014.82 1014.85 1014.85 1014.79 1014.68 1014.50 1014.28 1014.03 1013.78 1013.55 1013.37 1013.25 1013.18 1013.17 1013.20 1013.25 1013.29
1012.31 1012.81 1013.32 1013.85 1014.35 1014.80 1015.17 1015.44 1015.61 1015.67 1015.66 1015.59 1015.51 1015.43 1015.36 1015.32 1015.28 1015.25 1015.21 1015.15 1015.08 1015.01 1014.95 1014.91 1014.91 1014.93 1014.99 1015.04 1015.08 1015.08 1015.03 1014.91 1014.73 1014.51 1014.27 1014.02 1013.80 1013.62 1013.49 1013.41 1013.38 1013.38 1013.38
1011.81 1012.38 1012.96 1013.54 1014.11 1014.64 1015.08 1015.42 1015.64 1015.74 1015.74 1015.66 1015.55 1015.44 1015.35 1015.28 1015.24 1015.21 1015.19 1015.17 1015.14 1015.09 1015.05 1015.02 1015.01 1015.03 1015.08 1015.15 1015.21 1015.26 1015.27 1015.22 1015.11 1014.94 1014.73 1014.49 1014.26 1014.05 1013.87 1013.75 1013.66 1013.61 1013.57
1011.20 1011.82 1012.45 1013.09 1013.73 1014.32 1014.84 1015.25 1015.54 1015.70 1015.75 1015.70 1015.60 1015.49 1015.39 1015.31 1015.28 1015.27 1015.27 1015.27 1015.26 1015.23 1015.19 1015.15 1015.12 1015.12 1015.16 1015.22 1015.30 1015.37 1015.43 1015.44 1015.40 1015.30 1015.14 1014.94 1014.72 1014.49 1014.29 1014.12 1013.99 1013.90 1013.82
1010.51 1011.16 1011.83 1012.50 1013.18 1013.83 1014.42 1014.92 1015.30 1015.55 1015.67 1015.68 1015.63 1015.55 1015.47 1015.41 1015.39 1015.40 1015.42 1015.44 1015.44 1015.42 1015.37 1015.32 1015.27 1015.24 1015.25 1015.29 1015.37 1015.46 1015.55 1015.62 1015.64 1015.59 1015.49 1015.33 1015.13 1014.91 1014.70 1014.50 1014.33 1014.19 1014.08
1009.79 1010.45 1011.12 1011.81 1012.51 1013.21 1013.87 1014.45 1014.92 1015.27 1015.49 1015.59 1015.61 1015.59 1015.55 1015.52 1015.52 1015.55 1015.58 1015.61 1015.62 1015.60 1015.55 1015.49 1015.41 1015.36 1015.35 1015.37 1015.44 1015.54 1015.66 1015.76 1015.82 1015.83 1015.78 1015.65 1015.48 1015.27 1015.04 1014.82 1014.62 1014.45 1014.31
Thickness
5799 5800 5792 5791 5791 5790 5789 5789 5789 5788 5788 5787 5787 5786 5785 5784 5784 5783 5782 5781 5779 5777 5776 5775 5774 5773 5773 5772 5771 5769 5768 5767 5765 5764 5763 5762 5760 5759 5758 5757 5756 5757 5754
5801 5798 5791 5790 5789 5789 5788 5788 5787 5787 5786 5786 5786 5785 5784 5783 5782 5781 5780 5779 5778 5776 5775 5774 5773 5773 5772 5771 5770 5768 5767 5766 5764 5763 5761 5760 5759 5758 5757 5756 5756 5756 5752
5801 5798 5792 5789 5788 5788 5787 5786 5786 5786 5785 5785 5784 5784 5782 5781 5780 5779 5778 5777 5776 5775 5774 5773 5772 5771 5770 5769 5768 5767 5765 5764 5763 5762 5761 5762 5760 5757 5755 5754 5753 5752 5751
5801 5798 5793 5789 5788 5787 5786 5786 5785 5784 5784 5783 5783 5782 5781 5780 5779 5778 5777 5775 5774 5773 5772 5771 5770 5770 5769 5768 5767 5765 5764 5762 5761 5761 5762 5763 5761 5757 5754 5753 5752 5750 5749
5801 5798 5793 5788 5787 5786 5785 5785 5784 5783 5783 5782 5781 5780 5779 5779 5777 5776 5775 5774 5773 5772 5771 5770 5769 5768 5768 5766 5765 5764 5762 5761 5760 5761 5762 5762 5760 5755 5753 5752 5750 5749 5748
5802 5799 5793 5788 5786 5785 5784 5784 5784 5783 5782 5780 5779 5778 5778 5777 5776 5775 5774 5773 5772 5771 5770 5769 5768 5767 5766 5765 5764 5763 5761 5760 5760 5762 5761 5761 5760 5754 5752 5751 5749 5747 5746
5801 5799 5794 5788 5786 5785 5784 5783 5783 5782 5780 5779 5778 5778 5777 5776 5775 5774 5773 5772 5771 5770 5769 5768 5767 5766 5765 5764 5763 5762 5761 5760 5762 5762 5761 5760 5757 5753 5751 5750 5748 5746 5745
5801 5798 5794 5788 5786 5785 5784 5783 5782 5781 5780 5778 5778 5777 5776 5775 5774 5773 5772 5771 5770 5769 5768 5767 5766 5765 5764 5763 5762 5761 5761 5760 5762 5762 5760 5758 5754 5752 5750 5748 5746 5745 5744
5800 5798 5795 5792 5788 5785 5784 5783 5782 5781 5779 5778 5777 5776 5775 5774 5774 5773 5772 5771 5769 5768 5767 5766 5765 5764 5763 5762 5762 5760 5759 5760 5762 5761 5760 5757 5753 5750 5748 5747 5745 5744 5743
5799 5797 5796 5793 5790 5789 5786 5782 5781 5780 5779 5777 5775 5775 5774 5774 5774 5773 5772 5770 5769 5768 5767 5766 5765 5764 5763 5762 5761 5760 5759 5759 5762 5761 5759 5756 5751 5749 5747 5746 5744 5742 5741
5794 5795 5796 5794 5791 5790 5788 5783 5781 5779 5778 5777 5776 5774 5774 5776 5776 5775 5773 5770 5769 5768 5767 5766 5765 5764 5763 5762 5761 5760 5759 5761 5762 5761 5758 5753 5750 5748 5746 5745 5743 5741 5739
5791 5793 5794 5793 5792 5790 5788 5784 5783 5783 5779 5778 5777 5776 5776 5776 5775 5775 5771 5770 5769 5768 5767 5766 5765 5764 5764 5765 5763 5761 5762 5762 5762 5760 5756 5752 5749 5747 5746 5744 5742 5740 5738
5792 5792 5793 5791 5789 5789 5787 5785 5784 5782 5780 5779 5777 5776 5775 5776 5776 5775 5774 5772 5771 5770 5770 5768 5768 5767 5767 5766 5764 5764 5763 5763 5762 5760 5756 5751 5749 5747 5746 5744 5742 5740 5738
5793 5792 5793 5791 5789 5787 5787 5785 5784 5783 5781 5780 5777 5777 5776 5776 5775 5775 5774 5774 5773 5772 5770 5770 5767 5767 5766 5765 5764 5764 5764 5763 5761 5759 5755 5751 5749 5747 5745 5744 5742 5740 5738
5793 5793 5792 5790 5788 5787 5784 5784 5784 5783 5783 5781 5778 5777 5776 5776 5775 5775 5773 5772 5773 5772 5771 5769 5768 5766 5765 5764 5764 5764 5763 5762 5761 5760 5756 5752 5749 5747 5745 5743 5742 5740 5738
5795 5794 5793 5791 5789 5786 5784 5783 5783 5783 5781 5781 5779 5777 5776 5776 5775 5774 5773 5772 5772 5772 5770 5769 5768 5766 5765 5764 5763 5763 5763 5763 5761 5759 5758 5754 5750 5748 5746 5744 5743 5741 5739
5798 5796 5794 5792 5790 5787 5785 5783 5784 5783 5782 5781 5779 5777 5776 5776 5775 5775 5774 5773 5772 5771 5769 5768 5767 5766 5765 5764 5763 5763 5763 5762 5761 5758 5757 5756 5754 5750 5748 5745 5743 5741 5739
5800 5796 5795 5795 5791 5787 5785 5783 5784 5783 5782 5781 5779 5778 5776 5776 5775 5775 5775 5774 5772 5771 5770 5768 5767 5765 5763 5763 5762 5763 5762 5760 5760 5759 5757 5755 5754 5753 5750 5746 5743 5741 5739
5800 5797 5794 5793 5791 5789 5786 5784 5784 5782 5781 5781 5780 5779 5777 5776 5775 5775 5774 5772 5772 5772 5771 5770 5767 5765 5762 5761 5762 5761 5762 5761 5760 5759 5757 5756 5754 5753 5752 5747 5744 5741 5739
5802 5798 5795 5793 5791 5789 5787 5785 5784 5782 5782 5781 5780 5778 5776 5776 5775 5775 5774 5772 5773 5772 5770 5768 5765 5764 5762 5762 5763 5761 5762 5761 5760 5759 5758 5756 5754 5753 5751 5749 5746 5743 5739
5803 5799 5795 5793 5791 5789 5787 5785 5783 5781 5781 5781 5780 5777 5776 5776 5775 5774 5775 5772 5771 5771 5768 5768 5766 5764 5763 5763 5761 5758 5759 5760 5759 5757 5757 5755 5754 5752 5750 5748 5746 5744 5741
5804 5800 5797 5794 5793 5790 5788 5786 5784 5783 5782 5782 5781 5777 5776 5775 5774 5775 5772 5773 5771 5770 5768 5766 5764 5764 5763 5762 5759 5755 5752 5752 5753 5756 5755 5753 5752 5751 5750 5748 5744 5742 5741
5807 5803 5801 5797 5794 5792 5790 5788 5786 5783 5781 5781 5779 5778 5777 5776 5775 5774 5773 5772 5771 5771 5768 5766 5765 5762 5760 5760 5760 5756 5751 5746 5748 5752 5752 5751 5750 5749 5748 5747 5745 5742 5740
5810 5808 5803 5799 5795 5793 5791 5789 5786 5782 5779 5779 5780 5780 5778 5777 5775 5774 5772 5771 5770 5771 5768 5767 5767 5764 5760 5758 5757 5756 5754 5752 5746 5745 5748 5750 5749 5747 5746 5747 5745 5741 5739
5814 5811 5806 5801 5797 5794 5792 5790 5786 5785 5783 5783 5781 5779 5777 5777 5776 5774 5773 5771 5769 5770 5768 5766 5764 5763 5762 5759 5757 5755 5752 5751 5750 5745 5741 5744 5746 5747 5746 5744 5743 5741 5738
5816 5813 5809 5802 5797 5795 5793 5791 5787 5785 5783 5781 5779 5778 5778 5778 5777 5775 5774 5771 5770 5769 5767 5765 5763 5762 5760 5757 5756 5755 5752 5750 5748 5747 5743 5741 5741 5744 5744 5743 5742 5740 5737